Temperature
18 19 19 18 22 24 24 24 24 24 25 25 24 24 26 26 25 24 22 22 22 22 22 22 21 21 21 20 20 19 19 18 18 17 17 16 16 16 16 16 16 17 17 17 17 17 17 17 17
18 19 18 20 23 24 24 24 24 25 24 23 23 24 25 25 22 21 21 22 22 22 22 22 21 21 21 21 20 19 19 18 18 17 16 16 16 16 16 16 16 16 16 16 16 16 16 16 16
18 19 19 22 23 24 24 24 24 24 23 23 24 23 24 24 21 21 22 22 22 21 22 21 21 21 21 21 20 19 19 18 18 16 16 16 16 16 16 16 16 16 16 16 16 16 16 16 16
18 19 21 23 23 23 23 24 23 24 24 23 24 24 23 22 22 21 22 22 21 21 21 21 21 21 20 20 20 19 19 18 18 16 16 16 16 16 16 16 16 16 16 16 16 16 16 16 16
18 20 22 22 23 23 24 23 22 24 25 24 24 25 24 21 22 22 21 21 21 20 21 21 21 20 20 19 19 19 19 18 18 16 15 16 16 16 16 16 16 16 16 16 16 16 16 16 16
19 21 22 23 23 23 24 22 22 24 24 23 23 24 24 21 22 22 21 21 21 21 21 21 20 20 19 19 19 18 18 18 17 16 16 15 16 16 15 15 15 15 16 16 16 16 16 16 16
20 21 22 22 22 23 23 22 23 24 24 24 23 24 24 21 21 21 21 21 21 21 21 20 20 20 19 18 18 18 18 18 17 17 16 15 15 15 15 15 15 15 15 16 16 16 16 16 16
19 21 21 21 21 22 23 22 22 22 24 21 21 24 24 21 22 21 21 20 21 21 21 20 20 19 18 18 17 17 17 17 17 16 16 16 15 15 15 14 14 15 15 15 16 16 16 16 15
18 21 21 22 21 22 22 22 22 20 21 21 21 22 22 22 21 21 20 20 20 20 20 20 19 19 18 17 16 17 16 16 16 15 15 16 15 14 14 14 15 15 15 16 16 15 15 15 15
19 21 22 21 22 22 22 21 21 22 22 23 22 21 22 21 20 19 19 19 19 19 19 19 19 19 18 17 16 16 15 15 15 14 14 13 13 13 13 14 16 16 16 16 16 16 15 15 15
19 20 21 20 20 20 20 21 21 22 23 23 23 22 20 20 19 19 18 18 18 19 19 19 19 18 18 17 16 16 15 15 14 14 14 13 13 13 13 14 15 16 16 16 16 16 15 14 14
20 20 20 20 19 19 20 20 21 21 22 22 20 20 19 19 19 18 18 18 18 18 18 18 18 18 18 17 16 16 15 14 14 14 14 13 13 13 13 13 13 14 14 15 15 15 14 14 14
20 20 19 19 18 18 18 19 20 20 20 20 19 19 19 19 18 18 17 17 17 17 17 17 17 17 17 17 16 16 15 14 14 14 14 13 13 12 12 12 12 12 12 13 14 14 14 14 14
19 19 19 19 19 18 18 20 19 21 19 19 19 18 18 18 17 17 16 16 16 16 16 16 16 16 17 16 16 15 15 14 14 13 13 13 12 12 12 12 12 12 12 12 12 13 13 13 14
18 19 21 20 19 19 19 21 21 21 19 19 19 19 17 16 16 16 16 15 15 15 15 16 16 16 16 16 16 15 15 15 14 13 13 12 12 12 11 11 12 12 12 12 12 12 13 13 13
19 19 20 21 19 19 19 21 22 20 18 18 18 17 16 16 15 15 15 14 14 14 15 15 15 15 15 15 15 14 14 14 13 13 12 12 11 11 11 11 11 11 11 12 12 12 13 13 13
20 20 20 20 19 19 19 20 21 19 17 17 16 16 15 15 15 14 14 14 14 14 14 14 14 14 15 15 15 14 13 13 12 12 11 11 11 11 11 11 11 11 11 12 12 12 12 12 13
20 20 19 19 19 18 18 19 20 17 16 16 15 15 14 14 13 13 13 13 13 12 13 13 13 14 14 14 14 14 13 12 11 11 11 11 11 11 11 11 11 11 11 11 12 12 12 12 12
18 18 18 19 18 17 18 18 18 16 15 15 14 13 13 13 13 12 12 12 12 12 12 12 13 13 13 13 13 13 12 12 11 10 10 10 10 10 10 10 10 10 11 11 11 11 11 11 12
17 18 19 18 17 16 17 17 17 15 14 13 12 12 12 12 12 12 12 12 12 11 11 11 12 12 13 13 13 13 12 11 10 10 10 10 10 10 10 10 10 10 10 10 10 10 10 11 11
18 17 17 17 17 16 15 18 16 15 13 12 11 11 11 10 11 11 11 11 11 11 10 11 11 12 12 12 12 12 11 10 10 10 10 10 10 10 10 10 9 9 9 9 9 9 9 9 10
17 16 15 15 16 17 15 17 18 14 13 12 10 10 10 9 9 9 9 10 10 11 11 10 10 11 11 12 12 11 10 10 10 9 9 9 9 9 9 9 9 9 9 9 9 9 9 9 9
15 15 15 14 15 15 15 15 18 14 12 11 10 9 9 9 8 8 8 8 8 9 10 9 9 10 10 11 11 10 10 10 9 9 9 9 9 9 9 9 8 8 8 8 8 8 8 8 8
14 15 16 13 14 15 15 15 17 13 11 10 10 9 9 8 8 8 7 7 7 7 7 8 8 9 9 9 10 10 10 10 9 9 9 8 8 8 8 8 8 8 8 8 8 8 8 8 8
15 15 16 16 16 16 14 14 15 10 9 9 9 9 8 8 8 7 7 6 6 6 6 6 7 7 8 8 9 9 9 9 9 9 8 8 8 8 8 8 8 8 8 8 8 7 7 7 7
13 14 14 14 15 16 15 14 14 10 9 9 9 9 8 7 7 7 6 6 6 5 5 5 6 6 7 7 8 8 9 9 9 9 9 8 8 8 8 8 7 7 7 7 7 7 7 7 7
13 13 12 12 13 13 14 14 12 10 10 10 9 9 8 7 6 6 6 5 5 5 4 4 4 5 6 7 7 8 8 8 8 8 8 8 8 7 7 7 7 7 7 7 7 7 7 7 7
12 12 12 12 12 13 14 15 14 10 9 10 9 8 7 6 6 5 5 5 4 4 3 3 3 4 5 6 6 6 7 7 7 8 7 7 7 7 7 6 6 6 6 6 6 6 6 6 6
11 11 11 12 11 11 11 13 10 9 9 9 8 7 7 6 5 5 5 5 4 3 2 2 2 2 3 4 4 5 5 5 6 6 6 6 6 5 5 5 5 5 5 5 5 4 4 5 5
10 10 10 10 11 11 10 11 10 10 9 8 7 7 6 6 5 5 5 5 4 3 2 1 1 1 0 1 2 2 3 3 4 4 4 4 4 4 4 4 4 4 3 3 3 3 3 3 3
Wind_Speed
1 1 2 3 4 4 4 3 2 3 2 1 1 2 3 2 2 2 3 3 3 2 5 12 13 13 12 12 11 11 10 9 8 9 8 7 8 8 8 8 7 7 7 8 8 8 8 8 8
1 2 3 3 4 4 5 3 3 1 2 1 1 1 2 1 1 1 2 3 4 2 6 9 14 14 13 13 12 12 11 9 9 9 8 6 6 7 7 7 7 7 7 7 8 8 8 8 9
1 2 3 3 4 3 3 2 1 2 3 2 1 1 2 1 1 1 2 7 4 4 6 8 12 14 13 13 13 12 11 10 10 9 8 6 5 5 5 6 5 5 5 6 7 8 8 9 9
2 2 3 4 5 3 3 2 5 4 2 1 2 2 2 1 1 2 6 6 4 4 6 8 12 13 13 12 12 12 12 11 10 10 9 7 6 6 5 3 2 3 4 5 6 8 9 9 9
1 3 4 5 5 4 5 6 6 5 2 1 3 4 3 4 1 3 5 5 4 4 5 6 10 11 11 12 12 12 12 11 10 9 8 8 7 7 6 2 1 2 3 5 6 8 9 10 11
2 3 4 5 5 5 5 4 5 6 4 3 3 4 3 4 3 1 4 3 2 2 3 4 8 9 11 12 12 12 12 11 10 9 8 8 8 8 7 5 3 2 3 5 6 8 9 11 11
3 3 4 5 5 5 2 2 4 6 6 3 2 4 2 5 3 2 2 3 3 2 1 4 7 10 12 12 12 13 13 12 11 10 9 7 6 6 5 3 2 1 3 5 6 8 8 10 11
2 3 3 4 5 3 2 3 3 5 5 1 3 5 3 3 4 3 1 1 2 2 1 2 5 8 9 11 13 12 12 12 12 11 9 5 4 5 2 4 1 3 5 6 7 7 8 9 10
3 4 5 3 4 2 2 5 4 2 5 3 4 5 3 1 4 5 4 3 1 1 1 2 3 5 8 9 8 11 12 12 11 12 12 9 11 11 8 9 2 6 8 8 8 8 8 8 10
4 5 4 3 3 5 7 9 9 6 8 8 9 8 5 5 6 8 7 6 4 2 2 3 3 4 6 6 7 8 8 9 10 10 10 10 9 8 8 4 5 9 10 10 11 10 9 10 10
4 6 4 5 6 7 9 10 7 8 12 13 14 12 5 8 9 9 8 6 3 2 2 2 3 2 4 4 5 5 5 6 7 8 8 8 8 7 7 7 6 9 10 11 10 11 11 11 8
5 7 8 7 5 7 11 10 10 12 14 13 11 10 9 10 11 10 9 6 4 3 1 1 2 1 0 2 4 4 5 5 5 6 8 7 5 6 5 5 6 6 6 7 8 8 10 10 10
8 8 8 9 10 12 13 14 13 14 13 11 10 9 10 11 10 9 8 6 6 5 2 1 1 2 2 2 2 4 5 5 6 6 7 7 6 6 5 5 5 6 6 6 7 9 10 10 9
5 8 10 11 11 5 7 8 5 7 4 7 8 10 10 10 10 9 9 9 8 7 5 3 2 3 3 3 3 2 3 4 5 6 7 8 7 6 6 6 5 6 6 6 7 9 9 9 6
5 8 11 5 2 2 6 9 4 3 8 13 13 12 10 10 9 11 11 10 10 8 6 6 4 4 4 3 3 2 2 3 4 5 7 8 8 8 7 7 7 6 7 7 7 8 7 6 5
4 5 4 1 3 3 6 9 5 10 15 16 13 12 11 10 8 9 10 11 10 9 9 8 6 6 5 4 3 3 3 3 4 5 6 8 8 8 7 7 7 7 7 7 7 7 7 7 7
4 6 7 5 3 5 6 11 13 16 13 12 14 16 16 16 16 11 9 11 11 11 10 9 7 7 5 4 4 4 4 4 4 5 5 6 7 7 7 6 6 7 7 7 7 7 7 7 8
6 8 8 9 6 8 10 14 14 13 11 14 16 18 19 21 21 18 12 8 8 9 9 9 8 7 6 5 4 4 4 5 5 5 4 5 5 6 6 5 6 6 6 6 7 7 6 6 7
6 9 13 11 5 8 13 15 10 9 13 16 17 19 20 21 22 22 18 11 7 8 9 10 10 9 7 6 6 5 5 5 5 4 4 5 5 5 4 4 4 4 4 4 5 4 5 4 3
7 11 12 7 4 9 11 11 5 11 14 15 17 20 21 22 24 24 23 17 11 10 11 11 12 11 10 7 6 5 5 5 4 3 3 3 4 3 3 5 4 4 3 3 3 4 4 3 3
9 8 10 14 16 6 7 3 12 10 14 16 18 19 22 22 24 24 24 23 18 12 12 11 12 11 11 9 6 5 5 5 5 6 5 4 3 3 3 4 4 4 4 4 3 3 5 4 4
6 6 11 15 13 7 4 4 8 8 11 16 18 20 21 22 23 23 23 24 22 18 13 13 13 12 11 10 9 10 8 8 9 6 5 5 4 4 3 4 4 5 5 5 4 3 3 4 4
7 11 14 12 9 8 4 6 5 6 6 14 17 19 20 21 21 22 21 21 21 21 16 14 14 14 12 11 10 10 10 8 7 7 7 6 5 4 4 4 4 5 5 5 5 5 5 4 4
8 12 9 4 4 5 3 5 4 4 6 12 16 18 19 19 20 20 21 21 21 21 20 17 15 15 14 12 11 11 11 10 9 9 8 7 6 5 5 4 5 5 5 6 6 6 6 6 6
10 9 6 5 4 3 2 7 4 9 9 12 16 17 18 19 19 21 22 23 23 23 22 21 19 17 16 14 13 12 11 11 11 10 9 8 7 6 5 4 5 5 5 5 6 6 7 8 8
5 4 4 6 8 10 7 7 5 9 6 10 14 16 18 19 20 21 22 22 22 23 23 23 22 20 17 16 15 14 12 10 9 10 8 7 6 5 3 3 4 5 5 6 6 6 8 7 8
2 2 2 6 11 10 7 4 5 5 8 16 21 23 23 23 22 22 22 22 22 22 22 23 23 22 19 17 16 14 13 10 9 7 5 4 2 1 1 2 4 5 6 6 6 6 8 7 8
3 2 3 4 7 10 13 12 4 5 18 26 29 27 23 21 21 22 21 22 22 21 21 22 22 22 20 17 14 10 10 8 6 4 3 2 2 2 2 4 5 6 7 7 7 7 7 8 8
4 2 2 5 7 8 12 10 7 11 21 27 26 24 23 21 22 23 23 22 21 20 19 19 20 21 19 14 10 7 6 5 5 4 3 2 2 3 3 5 6 7 8 9 9 10 9 9 10
2 1 2 7 11 11 14 13 6 16 25 26 26 25 24 23 24 26 26 25 21 18 17 17 16 16 16 13 7 2 3 4 3 3 3 3 3 4 4 5 6 7 8 8 9 9 9 9 9
Wind_Direction
103 199 244 255 239 222 178 158 200 189 212 313 321 281 298 329 314 36 81 43 347 349 172 177 190 192 195 197 200 206 211 214 220 226 232 235 235 239 232 225 221 225 227 227 225 220 213 205 196
318 283 257 262 251 204 165 168 195 195 3 354 136 199 224 126 54 61 140 360 313 253 184 188 178 193 197 200 203 210 212 220 231 230 227 244 247 255 247 232 226 231 239 238 231 224 216 206 197
171 291 283 263 249 232 140 113 75 322 305 244 196 214 280 173 156 182 8 334 290 207 190 186 181 195 201 204 206 211 215 224 232 233 226 244 260 268 255 242 240 243 251 248 233 227 222 211 200
239 244 261 262 251 281 301 10 339 309 156 194 242 214 208 201 260 330 337 319 261 202 192 187 192 201 205 209 212 215 220 227 231 238 221 229 253 276 281 277 272 268 264 253 240 232 226 215 203
232 262 255 251 264 284 289 307 303 282 234 199 248 264 237 176 237 313 337 327 270 223 207 197 195 209 211 214 218 221 226 227 233 245 224 224 242 261 273 261 305 302 278 264 255 244 236 220 206
200 244 253 255 264 287 286 284 288 272 253 221 238 264 246 151 175 20 360 356 325 274 236 218 199 221 220 217 220 222 228 228 232 247 246 238 241 254 262 254 251 274 298 282 269 257 246 233 215
219 238 265 279 286 284 310 320 284 292 269 254 235 263 249 168 144 117 51 39 42 39 241 235 220 215 218 223 223 222 227 229 228 236 248 257 256 260 276 304 302 312 351 331 293 266 250 241 230
218 237 247 257 268 268 345 333 295 298 307 28 241 262 297 107 150 164 133 63 57 53 38 257 234 231 225 218 212 222 227 232 230 228 233 249 267 254 250 260 357 341 328 328 324 289 254 243 239
218 239 248 245 245 246 335 334 334 285 278 252 244 271 324 131 189 210 227 228 230 42 20 332 271 243 236 234 216 216 222 229 237 228 219 230 247 245 236 248 276 290 291 295 300 307 283 250 234
217 243 255 255 258 292 314 314 315 287 276 272 263 251 239 228 223 232 247 259 270 298 343 337 306 267 243 236 234 232 227 222 228 233 224 230 240 248 260 265 264 273 275 274 269 274 276 249 235
230 253 287 275 274 287 296 301 294 285 285 289 295 302 262 237 235 238 244 253 266 286 324 342 333 291 245 224 230 235 233 230 231 234 235 235 241 244 249 255 242 248 248 256 246 244 241 237 234
245 256 262 276 281 283 289 292 287 271 277 301 302 297 280 251 241 236 237 237 230 235 269 4 15 32 190 214 210 224 228 229 232 229 235 236 239 247 250 250 255 254 248 250 252 246 237 238 236
248 272 270 272 282 283 283 278 281 277 289 299 294 290 282 268 250 237 235 226 220 217 199 141 78 91 114 145 184 214 223 232 231 232 230 234 239 243 242 246 244 250 253 248 244 238 232 231 231
278 274 281 287 288 273 276 284 267 273 319 322 320 314 306 286 260 240 227 225 221 217 206 191 164 135 138 154 172 194 224 231 245 240 237 235 240 242 243 248 247 252 252 252 246 240 234 227 213
282 286 286 260 283 292 288 280 238 320 334 329 331 327 320 301 273 252 241 235 229 221 214 208 199 191 177 169 172 194 216 237 243 243 241 235 236 238 238 245 246 249 249 249 244 241 237 222 199
260 264 274 132 351 357 309 296 341 1 344 345 354 359 357 348 313 275 255 244 236 224 219 214 212 215 207 202 203 210 226 233 237 241 240 237 235 234 237 243 248 249 247 243 235 226 219 214 207
247 283 302 324 33 349 324 301 325 359 5 26 36 34 30 25 12 343 287 254 241 233 227 223 221 224 219 212 214 222 225 230 233 233 236 232 232 232 237 245 252 247 244 241 236 224 217 213 207
317 312 309 314 337 329 309 299 331 23 49 53 46 41 37 33 23 10 350 304 267 251 244 238 232 232 223 218 219 216 224 226 228 226 220 218 217 224 236 242 248 250 244 241 237 224 218 221 217
310 300 302 308 327 317 302 305 344 61 57 51 46 40 34 31 26 23 15 355 305 263 248 245 243 234 229 227 226 224 223 220 216 214 214 216 213 212 223 231 235 241 243 239 232 212 204 203 211
294 297 305 313 318 313 305 305 81 83 62 52 44 37 30 23 21 20 17 10 338 292 263 250 246 241 234 233 232 230 221 218 209 195 197 207 205 201 210 223 225 224 224 214 209 201 193 181 197
304 304 317 314 319 286 301 249 140 96 69 51 41 32 28 21 17 13 10 7 356 323 284 265 256 247 238 230 219 207 205 209 207 203 197 197 201 194 200 213 217 213 213 207 201 207 208 196 187
316 340 311 306 309 300 329 280 168 123 67 40 30 26 22 19 15 12 8 4 358 344 313 285 275 260 244 231 228 224 223 223 222 214 206 205 208 207 205 212 216 215 213 207 202 201 211 206 199
317 312 297 294 284 275 235 244 196 127 52 29 23 20 18 15 12 9 6 0 357 353 337 306 288 275 259 245 239 235 234 234 227 220 221 224 215 214 214 220 222 222 220 216 213 205 208 215 215
313 303 285 227 240 242 185 252 240 91 51 24 18 16 13 10 6 4 2 358 355 354 347 330 303 285 272 258 246 237 233 227 225 226 228 227 218 206 203 216 223 224 223 219 220 220 222 225 229
351 337 319 299 270 265 176 267 247 114 63 30 13 8 5 3 1 360 358 354 352 349 346 338 322 297 280 266 255 246 240 235 231 230 229 228 220 208 204 223 235 234 232 232 230 230 231 233 236
347 347 338 311 300 300 285 262 141 122 65 17 8 2 359 358 357 355 351 347 345 344 342 338 329 312 288 269 259 255 250 246 242 233 227 222 220 209 207 243 257 258 256 251 245 245 241 238 238
332 43 339 286 285 285 275 261 151 135 11 359 356 357 356 353 349 345 341 339 338 338 338 337 329 317 299 276 262 257 254 248 248 239 226 208 186 176 264 293 286 281 277 271 265 256 253 251 249
20 1 299 286 301 298 298 296 293 39 1 356 352 347 342 338 336 334 332 331 331 331 333 336 334 323 308 289 268 259 254 242 222 199 182 152 104 36 339 319 304 294 288 283 276 271 266 262 257
330 307 299 284 276 287 297 315 61 17 356 346 340 337 332 328 328 327 325 324 324 325 329 335 338 335 326 307 273 241 229 212 186 154 129 84 48 16 342 323 306 295 289 282 274 268 268 265 263
286 317 298 295 291 276 283 293 76 350 343 338 332 329 325 323 322 322 321 320 319 321 325 332 338 342 342 340 327 268 187 168 145 116 94 65 35 12 346 320 307 299 291 283 275 271 267 264 264
Height
1524 1523 1522 1522 1519 1513 1509 1508 1507 1507 1507 1508 1509 1508 1507 1507 1509 1514 1513 1511 1511 1511 1511 1510 1510 1510 1510 1510 1511 1511 1512 1513 1514 1515 1515 1516 1516 1517 1517 1517 1517 1518 1518 1518 1519 1519 1520 1520 1520
1524 1523 1524 1522 1514 1511 1509 1506 1507 1507 1508 1510 1510 1509 1508 1509 1510 1511 1511 1510 1511 1510 1510 1510 1510 1510 1510 1510 1510 1510 1511 1512 1513 1514 1514 1515 1515 1516 1516 1516 1516 1517 1517 1517 1518 1518 1519 1519 1519
1524 1523 1524 1518 1512 1509 1508 1506 1507 1509 1509 1509 1509 1509 1509 1510 1510 1510 1510 1510 1510 1510 1510 1510 1510 1510 1509 1509 1509 1509 1510 1511 1511 1512 1513 1513 1514 1514 1515 1515 1515 1516 1516 1516 1516 1517 1517 1518 1518
1524 1525 1523 1517 1513 1510 1509 1507 1510 1509 1509 1509 1509 1508 1509 1509 1509 1509 1509 1509 1510 1510 1509 1509 1509 1509 1508 1508 1508 1508 1509 1509 1510 1511 1511 1512 1512 1513 1513 1514 1514 1514 1514 1514 1515 1515 1516 1516 1516
1524 1524 1520 1516 1514 1510 1510 1511 1511 1508 1507 1508 1509 1507 1508 1508 1507 1508 1508 1508 1509 1509 1508 1508 1508 1507 1507 1507 1507 1507 1507 1508 1508 1509 1510 1510 1510 1511 1511 1512 1512 1512 1512 1513 1513 1513 1513 1514 1514
1525 1522 1518 1515 1512 1510 1509 1511 1510 1508 1507 1508 1508 1507 1506 1506 1506 1506 1507 1507 1507 1507 1507 1506 1506 1506 1506 1506 1506 1506 1505 1506 1506 1507 1507 1508 1508 1508 1509 1509 1510 1510 1510 1510 1511 1511 1511 1512 1512
1524 1521 1518 1517 1515 1511 1509 1511 1510 1507 1506 1507 1508 1506 1505 1506 1505 1505 1505 1506 1505 1505 1505 1505 1504 1504 1504 1504 1504 1504 1504 1503 1504 1504 1505 1505 1505 1506 1506 1506 1507 1507 1507 1508 1508 1509 1509 1510 1510
1523 1521 1518 1516 1515 1512 1510 1510 1510 1509 1507 1508 1507 1505 1504 1506 1504 1504 1504 1504 1504 1504 1503 1503 1502 1502 1502 1501 1501 1501 1501 1501 1501 1501 1502 1502 1502 1503 1503 1503 1503 1503 1504 1504 1505 1506 1506 1507 1508
1523 1521 1516 1514 1514 1510 1510 1510 1509 1509 1508 1507 1506 1505 1504 1503 1502 1502 1502 1502 1502 1501 1500 1500 1499 1499 1499 1499 1499 1499 1499 1499 1498 1499 1498 1499 1500 1501 1500 1500 1499 1500 1500 1501 1502 1503 1503 1504 1505
1522 1518 1513 1512 1512 1511 1511 1510 1509 1507 1505 1504 1504 1503 1501 1500 1500 1500 1501 1501 1500 1499 1498 1497 1496 1496 1495 1495 1495 1496 1496 1496 1496 1497 1497 1496 1497 1497 1497 1496 1495 1496 1496 1497 1498 1499 1500 1501 1502
1519 1515 1513 1514 1514 1513 1511 1509 1508 1506 1502 1501 1501 1501 1500 1498 1498 1498 1498 1498 1498 1497 1496 1495 1494 1493 1492 1492 1492 1493 1493 1494 1494 1495 1494 1494 1494 1493 1492 1492 1492 1492 1492 1493 1494 1495 1497 1498 1499
1518 1515 1515 1513 1513 1512 1510 1508 1506 1504 1501 1500 1499 1498 1497 1496 1496 1496 1496 1496 1495 1495 1494 1493 1492 1491 1490 1490 1489 1489 1490 1491 1492 1491 1491 1491 1491 1490 1490 1489 1489 1488 1488 1489 1489 1491 1493 1494 1495
1517 1514 1514 1513 1512 1511 1509 1506 1505 1500 1499 1497 1496 1495 1494 1494 1493 1493 1493 1493 1493 1493 1492 1492 1491 1490 1489 1488 1488 1487 1487 1488 1488 1488 1488 1488 1487 1487 1487 1486 1485 1485 1485 1485 1485 1487 1489 1490 1491
1515 1514 1512 1510 1509 1508 1506 1503 1503 1497 1497 1496 1495 1494 1493 1491 1491 1490 1490 1491 1491 1491 1491 1490 1489 1489 1488 1487 1487 1486 1486 1486 1486 1485 1485 1484 1484 1483 1483 1483 1482 1482 1482 1482 1482 1483 1485 1486 1486
1516 1513 1507 1506 1507 1506 1506 1499 1497 1497 1497 1496 1494 1492 1490 1488 1487 1487 1488 1489 1490 1489 1489 1488 1488 1487 1486 1486 1485 1485 1484 1483 1483 1482 1481 1480 1480 1480 1480 1479 1479 1478 1478 1478 1478 1479 1480 1480 1481
1513 1510 1505 1504 1506 1506 1507 1498 1495 1497 1496 1494 1492 1490 1488 1487 1485 1485 1485 1486 1487 1486 1486 1486 1486 1485 1485 1484 1483 1482 1481 1480 1479 1478 1477 1477 1477 1476 1476 1476 1476 1475 1474 1474 1473 1474 1474 1475 1477
1509 1506 1506 1505 1507 1507 1505 1499 1495 1498 1497 1495 1493 1491 1489 1487 1485 1484 1483 1483 1484 1484 1484 1484 1484 1484 1483 1482 1481 1479 1478 1477 1476 1474 1474 1473 1473 1472 1473 1473 1472 1471 1471 1470 1470 1469 1470 1471 1472
1510 1509 1508 1507 1505 1507 1504 1498 1497 1501 1500 1498 1497 1495 1493 1490 1488 1484 1482 1482 1483 1483 1483 1483 1483 1483 1482 1480 1479 1477 1475 1474 1472 1471 1470 1469 1469 1469 1470 1469 1469 1468 1468 1467 1466 1466 1466 1467 1468
1516 1514 1510 1507 1508 1509 1502 1499 1500 1504 1504 1502 1501 1499 1496 1494 1492 1487 1483 1482 1481 1481 1481 1481 1481 1480 1480 1478 1476 1474 1472 1471 1469 1468 1467 1467 1467 1466 1466 1466 1466 1465 1465 1464 1463 1463 1463 1463 1464
1515 1512 1507 1505 1508 1509 1503 1501 1503 1506 1507 1507 1505 1502 1499 1495 1491 1488 1486 1483 1482 1481 1480 1479 1479 1478 1476 1475 1473 1471 1469 1467 1466 1465 1464 1464 1464 1463 1464 1464 1464 1463 1463 1462 1461 1461 1460 1460 1461
1513 1512 1511 1511 1508 1506 1509 1496 1502 1506 1508 1508 1507 1504 1500 1497 1493 1490 1487 1484 1482 1479 1478 1477 1476 1474 1473 1472 1470 1467 1465 1464 1463 1462 1461 1461 1461 1461 1461 1461 1461 1461 1461 1460 1460 1460 1460 1460 1459
1514 1516 1516 1512 1510 1503 1509 1498 1493 1503 1506 1508 1507 1504 1502 1499 1496 1493 1489 1485 1482 1479 1475 1473 1473 1471 1469 1468 1466 1464 1462 1461 1461 1460 1459 1458 1458 1458 1458 1458 1459 1459 1459 1458 1458 1458 1458 1459 1458
1518 1516 1513 1511 1509 1505 1505 1502 1488 1498 1504 1508 1508 1506 1504 1501 1499 1495 1492 1488 1484 1478 1474 1470 1469 1467 1465 1464 1462 1460 1459 1458 1457 1456 1456 1455 1455 1455 1455 1455 1456 1456 1456 1456 1455 1455 1456 1456 1457
1521 1512 1505 1512 1506 1500 1502 1499 1485 1500 1508 1509 1509 1507 1505 1503 1500 1497 1493 1488 1483 1478 1473 1468 1465 1463 1461 1460 1458 1457 1455 1454 1453 1453 1452 1451 1451 1451 1452 1452 1453 1453 1453 1453 1453 1453 1453 1454 1455
1520 1514 1505 1499 1495 1492 1503 1499 1490 1509 1511 1512 1511 1509 1507 1504 1501 1496 1492 1487 1482 1476 1471 1466 1462 1459 1458 1456 1454 1453 1452 1451 1450 1449 1448 1448 1448 1447 1448 1449 1450 1450 1450 1450 1450 1450 1450 1451 1451
1525 1522 1522 1519 1505 1493 1493 1495 1495 1509 1513 1513 1512 1511 1508 1504 1500 1496 1492 1487 1482 1476 1470 1464 1459 1455 1452 1451 1450 1449 1448 1447 1447 1445 1444 1443 1443 1444 1444 1445 1446 1446 1446 1446 1446 1446 1446 1447 1447
1526 1526 1528 1525 1512 1510 1493 1494 1501 1511 1511 1511 1508 1505 1502 1500 1498 1495 1491 1486 1480 1474 1467 1461 1454 1448 1445 1444 1444 1443 1443 1443 1442 1441 1440 1439 1439 1439 1440 1441 1441 1442 1442 1441 1441 1441 1441 1441 1441
1533 1531 1530 1526 1519 1507 1489 1487 1491 1508 1509 1506 1504 1504 1504 1503 1499 1495 1489 1483 1477 1471 1464 1457 1449 1442 1437 1436 1436 1436 1436 1436 1436 1436 1435 1434 1433 1434 1435 1436 1436 1436 1436 1435 1435 1435 1435 1435 1435
1535 1535 1532 1529 1527 1520 1506 1495 1509 1510 1511 1511 1510 1508 1505 1501 1496 1491 1485 1479 1473 1467 1460 1452 1444 1437 1431 1428 1427 1426 1428 1428 1429 1429 1429 1430 1429 1430 1430 1431 1430 1430 1429 1428 1428 1428 1428 1428 1429
1538 1537 1535 1534 1525 1523 1519 1507 1510 1510 1512 1513 1510 1506 1502 1497 1492 1486 1480 1474 1468 1462 1456 1449 1441 1434 1428 1423 1421 1419 1419 1420 1421 1422 1423 1424 1424 1424 1425 1425 1424 1423 1422 1421 1420 1420 1420 1421 1422